Location: Unspecified
(0.0000°N, 0.0000°E)
Time: 08:00:12
(UTC+00:00)

Transit 4A - Pass Details

Date: 05 June 2022
Orbit: 864 x 980 km, 66.8° (Epoch: 24 June)

Event Time Altitude Azimuth Distance (km) Brightness Sun altitude
Rises 12:40:02 0° 317° (NW) 3,513 11.3 65.3°
Reaches altitude 10° 12:42:58 10° 305° (NW) 2,556 10.7 65.0°
Maximum altitude 12:47:43 25° 251° (WSW) 1,686 9.7 64.4°
Drops below altitude 10° 12:52:25 10° 196° (SSW) 2,516 10.1 63.9°
Sets 12:55:19 0° 183° (S) 3,447 10.7 63.5°
